N27JY RJCC-RJFF

Flight info

Callsign N27JY
Flight time 2h 10m
Altitude 38000
Route DALBI Y120 TAPPI Y12 ARIKA Y14 STOUT Y20 KIRIN
Aircraft CL60/M-SBDE1E2E3FGHIJ1J4J5J7M3RWXYZ/LB1V1D1

Departure

Time 2026-05-07 14:08
Airport New Chitose Airport (RJCC)

Arrival

Time 2026-05-07 16:18
Airport Fukuoka Airport (RJFF)
Time Latitude Longitude Altitude Speed Heading
2026-05-07 13:46 42.78253 141.68030 87 ft 0 kts 182°
2026-05-07 13:48 42.78254 141.68030 87 ft 0 kts 182°
2026-05-07 14:00 42.78253 141.68030 87 ft 0 kts 182°
2026-05-07 14:03 42.78251 141.68030 87 ft 1 kts 176°
2026-05-07 14:03 42.78267 141.68041 88 ft 7 kts 332°
2026-05-07 14:03 42.78336 141.68048 89 ft 13 kts 49°
2026-05-07 14:03 42.78348 141.68152 89 ft 9 kts 122°
2026-05-07 14:04 42.78301 141.68272 86 ft 19 kts 119°
2026-05-07 14:04 42.78200 141.68431 81 ft 24 kts 140°
2026-05-07 14:04 42.78040 141.68535 78 ft 27 kts 167°
2026-05-07 14:04 42.77849 141.68571 79 ft 28 kts 172°
2026-05-07 14:05 42.77645 141.68608 79 ft 30 kts 173°
2026-05-07 14:05 42.77528 141.68692 77 ft 19 kts 118°
2026-05-07 14:05 42.77436 141.68829 76 ft 21 kts 166°
2026-05-07 14:05 42.77277 141.68858 75 ft 24 kts 173°
2026-05-07 14:06 42.77101 141.68889 75 ft 26 kts 173°
2026-05-07 14:06 42.76913 141.68922 76 ft 27 kts 173°
2026-05-07 14:06 42.76716 141.68956 76 ft 29 kts 173°
2026-05-07 14:06 42.76510 141.68993 76 ft 30 kts 173°
2026-05-07 14:07 42.76289 141.69031 75 ft 31 kts 173°
2026-05-07 14:07 42.76170 141.69083 73 ft 16 kts 121°
2026-05-07 14:07 42.76179 141.69234 67 ft 10 kts 44°
2026-05-07 14:07 42.76256 141.69249 68 ft 12 kts 353°
2026-05-07 14:08 42.76684 141.69185 73 ft 113 kts 353°
2026-05-07 14:08 42.77697 141.69060 335 ft 168 kts 356°
2026-05-07 14:08 42.78879 141.68982 1338 ft 178 kts
2026-05-07 14:08 42.80253 141.69081 2013 ft 216 kts
2026-05-07 14:09 42.81810 141.69225 2986 ft 239 kts
2026-05-07 14:09 42.83561 141.69464 3926 ft 264 kts 12°
2026-05-07 14:09 42.85239 141.70529 5124 ft 278 kts 37°
2026-05-07 14:09 42.86425 141.72617 6257 ft 292 kts 69°
2026-05-07 14:10 42.86733 141.75380 7392 ft 302 kts 97°
2026-05-07 14:10 42.86142 141.78047 8597 ft 301 kts 125°
2026-05-07 14:10 42.84156 141.80548 10179 ft 293 kts 163°
2026-05-07 14:10 42.82889 141.81030 10994 ft 287 kts 178°
2026-05-07 14:11 42.80957 141.81032 12219 ft 280 kts 197°
2026-05-07 14:11 42.79195 141.80103 13359 ft 274 kts 216°
2026-05-07 14:11 42.77652 141.78638 14493 ft 274 kts 220°
2026-05-07 14:11 42.76104 141.77124 15360 ft 283 kts 220°
2026-05-07 14:12 42.74418 141.75475 15576 ft 313 kts 219°
2026-05-07 14:12 42.72595 141.73700 16011 ft 333 kts 219°
2026-05-07 14:12 42.70663 141.71828 16804 ft 340 kts 219°
2026-05-07 14:12 42.68737 141.69965 17746 ft 341 kts 219°
2026-05-07 14:13 42.66835 141.68127 18656 ft 341 kts 219°
2026-05-07 14:13 42.64875 141.66235 19454 ft 344 kts 219°
2026-05-07 14:13 42.62938 141.64365 20199 ft 346 kts 220°
2026-05-07 14:13 42.60961 141.62459 20875 ft 350 kts 220°
2026-05-07 14:14 42.58971 141.60539 21534 ft 353 kts 220°
2026-05-07 14:14 42.56956 141.58598 22160 ft 356 kts 220°
2026-05-07 14:14 42.54931 141.56650 22792 ft 358 kts 220°
2026-05-07 14:14 42.52903 141.54700 23419 ft 360 kts 220°
2026-05-07 14:15 42.50859 141.52736 23991 ft 363 kts 220°
2026-05-07 14:15 42.48912 141.50578 24583 ft 360 kts 230°
2026-05-07 14:15 42.47498 141.47752 25163 ft 359 kts 242°
2026-05-07 14:15 42.46305 141.44771 25699 ft 362 kts 242°
2026-05-07 14:16 42.45098 141.41777 26261 ft 363 kts 242°
2026-05-07 14:16 42.43887 141.38780 26762 ft 365 kts 242°
2026-05-07 14:16 42.42671 141.35773 27281 ft 367 kts 242°
2026-05-07 14:16 42.41439 141.32733 27745 ft 369 kts 241°
2026-05-07 14:17 42.40203 141.29684 28213 ft 371 kts 241°
2026-05-07 14:17 42.38964 141.26631 28688 ft 371 kts 242°
2026-05-07 14:17 42.37711 141.23547 29096 ft 373 kts 241°
2026-05-07 14:17 42.36460 141.20473 29518 ft 374 kts 242°
2026-05-07 14:18 42.35204 141.17387 30031 ft 372 kts 241°
2026-05-07 14:18 42.33960 141.14337 30569 ft 370 kts 242°
2026-05-07 14:18 42.32724 141.11308 31087 ft 368 kts 242°
2026-05-07 14:18 42.31496 141.08304 31597 ft 365 kts 241°
2026-05-07 14:19 42.30274 141.05316 32120 ft 362 kts 242°
2026-05-07 14:19 42.29063 141.02361 32558 ft 361 kts 242°
2026-05-07 14:19 42.27846 140.99390 33004 ft 359 kts 242°
2026-05-07 14:19 42.26648 140.96469 33424 ft 358 kts 242°
2026-05-07 14:20 42.25446 140.93543 33856 ft 356 kts 241°
2026-05-07 14:20 42.24250 140.90633 34243 ft 355 kts 242°
2026-05-07 14:20 42.23053 140.87724 34609 ft 355 kts 241°
2026-05-07 14:20 42.21842 140.84784 35024 ft 353 kts 241°
2026-05-07 14:21 42.20652 140.81897 35431 ft 351 kts 240°
2026-05-07 14:21 42.19470 140.79033 35775 ft 351 kts 240°
2026-05-07 14:21 42.18279 140.76149 35829 ft 356 kts 240°
2026-05-07 14:22 42.15402 140.69199 35824 ft 368 kts 241°
2026-05-07 14:22 42.13300 140.64130 35824 ft 373 kts 240°
2026-05-07 14:23 42.10646 140.58102 35824 ft 375 kts 235°
2026-05-07 14:23 42.07030 140.53040 35824 ft 379 kts 222°
2026-05-07 14:24 42.02412 140.49478 35820 ft 389 kts 208°
2026-05-07 14:24 41.97161 140.47372 35825 ft 395 kts 203°
2026-05-07 14:25 41.91844 140.45386 35823 ft 396 kts 204°
2026-05-07 14:25 41.86520 140.43401 35825 ft 396 kts 204°
2026-05-07 14:26 41.81149 140.41402 35830 ft 396 kts 203°
2026-05-07 14:26 41.75821 140.39423 35829 ft 396 kts 204°
2026-05-07 14:27 41.70486 140.37442 35839 ft 396 kts 203°
2026-05-07 14:27 41.65168 140.35472 35834 ft 397 kts 203°
2026-05-07 14:28 41.59859 140.33510 35837 ft 398 kts 202°
2026-05-07 14:28 41.54486 140.31525 35841 ft 398 kts 202°
2026-05-07 14:29 41.49126 140.29550 35842 ft 398 kts 202°
2026-05-07 14:29 41.43767 140.27579 35843 ft 398 kts 202°
2026-05-07 14:30 41.38430 140.25618 35843 ft 398 kts 202°
2026-05-07 14:30 41.33076 140.23654 35845 ft 399 kts 202°
2026-05-07 14:31 41.27699 140.21686 35845 ft 400 kts 201°
2026-05-07 14:31 41.22327 140.19724 35843 ft 400 kts 201°
2026-05-07 14:32 41.16945 140.17758 35842 ft 401 kts 202°
2026-05-07 14:32 41.11555 140.15820 35842 ft 402 kts 201°
2026-05-07 14:33 41.06164 140.13954 35843 ft 401 kts 201°
2026-05-07 14:33 41.00743 140.12079 35844 ft 401 kts 201°
2026-05-07 14:34 40.95287 140.10196 35842 ft 402 kts 201°
2026-05-07 14:34 40.89859 140.08324 35844 ft 403 kts 200°
2026-05-07 14:35 40.84349 140.06426 35852 ft 404 kts 200°
2026-05-07 14:35 40.78918 140.04559 35853 ft 404 kts 200°
2026-05-07 14:36 40.73432 140.02678 35849 ft 404 kts 200°
2026-05-07 14:36 40.67954 140.00801 35853 ft 405 kts 201°
2026-05-07 14:37 40.62507 139.98938 35860 ft 405 kts 200°
2026-05-07 14:37 40.54274 139.96129 35854 ft 406 kts 201°
2026-05-07 14:38 40.48817 139.94270 35855 ft 406 kts 200°
2026-05-07 14:38 40.43432 139.92113 35857 ft 401 kts 209°
2026-05-07 14:39 40.38482 139.88811 35864 ft 400 kts 211°
2026-05-07 14:39 40.33524 139.85467 35859 ft 401 kts 211°
2026-05-07 14:40 40.28555 139.82123 35871 ft 402 kts 211°
2026-05-07 14:40 40.23551 139.78763 35872 ft 402 kts 211°
2026-05-07 14:41 40.18586 139.75433 35866 ft 403 kts 211°
2026-05-07 14:41 40.13570 139.72076 35881 ft 403 kts 211°
2026-05-07 14:42 40.08556 139.68726 35872 ft 404 kts 211°
2026-05-07 14:42 40.03560 139.65410 35872 ft 404 kts 211°
2026-05-07 14:43 39.98525 139.62131 35867 ft 405 kts 211°
2026-05-07 14:43 39.93480 139.58852 35863 ft 405 kts 210°
2026-05-07 14:44 39.88415 139.55565 35864 ft 405 kts 210°
2026-05-07 14:44 39.83387 139.52307 35861 ft 405 kts 210°
2026-05-07 14:45 39.78327 139.49033 35859 ft 405 kts 210°
2026-05-07 14:45 39.73278 139.45772 35855 ft 406 kts 211°
2026-05-07 14:46 39.68199 139.42496 35859 ft 406 kts 210°
2026-05-07 14:46 39.63130 139.39233 35862 ft 406 kts 210°
2026-05-07 14:47 39.58070 139.35980 35858 ft 407 kts 211°
2026-05-07 14:47 39.52975 139.32712 35861 ft 407 kts 210°
2026-05-07 14:48 39.47877 139.29445 35861 ft 408 kts 210°
2026-05-07 14:48 39.42800 139.26198 35860 ft 408 kts 210°
2026-05-07 14:49 39.37669 139.22922 35863 ft 409 kts 210°
2026-05-07 14:49 39.32520 139.19640 35859 ft 409 kts 210°
2026-05-07 14:50 39.27373 139.16363 35859 ft 409 kts 210°
2026-05-07 14:50 39.22263 139.13117 35861 ft 409 kts 210°
2026-05-07 14:51 39.17173 139.09888 35860 ft 409 kts 210°
2026-05-07 14:51 39.12054 139.06645 35860 ft 410 kts 210°
2026-05-07 14:52 39.06930 139.03404 35851 ft 411 kts 210°
2026-05-07 14:52 39.01805 139.00169 35850 ft 410 kts 210°
2026-05-07 14:53 38.96679 138.96938 35857 ft 411 kts 210°
2026-05-07 14:53 38.91513 138.93687 35866 ft 411 kts 210°
2026-05-07 14:54 38.86378 138.90462 35866 ft 412 kts 210°
2026-05-07 14:54 38.81205 138.87216 35863 ft 412 kts 210°
2026-05-07 14:55 38.76074 138.84004 35862 ft 412 kts 210°
2026-05-07 14:55 38.70917 138.80778 35863 ft 412 kts 210°
2026-05-07 14:56 38.65752 138.77554 35866 ft 413 kts 210°
2026-05-07 14:56 38.60589 138.74338 35866 ft 413 kts 210°
2026-05-07 14:57 38.55427 138.71124 35864 ft 413 kts 210°
2026-05-07 14:57 38.50230 138.67897 35866 ft 414 kts 210°
2026-05-07 14:58 38.45052 138.64685 35862 ft 414 kts 210°
2026-05-07 14:58 38.39850 138.61464 35867 ft 415 kts 210°
2026-05-07 14:59 38.34634 138.58238 35864 ft 417 kts 210°
2026-05-07 14:59 38.29377 138.54993 35864 ft 417 kts 210°
2026-05-07 15:00 38.24149 138.51772 35867 ft 417 kts 210°
2026-05-07 15:00 38.18917 138.48552 35868 ft 417 kts 210°
2026-05-07 15:01 38.13680 138.45335 35869 ft 418 kts 210°
2026-05-07 15:01 38.08717 138.41585 35870 ft 414 kts 221°
2026-05-07 15:02 38.04750 138.36381 35874 ft 412 kts 234°
2026-05-07 15:02 38.01803 138.30133 35870 ft 413 kts 240°
2026-05-07 15:03 37.99004 138.23781 35867 ft 413 kts 240°
2026-05-07 15:03 37.96196 138.17424 35869 ft 413 kts 240°
2026-05-07 15:04 37.93394 138.11095 35862 ft 412 kts 240°
2026-05-07 15:04 37.90583 138.04758 35864 ft 413 kts 240°
2026-05-07 15:05 37.87758 137.98401 35860 ft 414 kts 240°
2026-05-07 15:05 37.84925 137.92040 35866 ft 414 kts 240°
2026-05-07 15:06 37.82104 137.85719 35868 ft 414 kts 240°
2026-05-07 15:06 37.79262 137.79362 35869 ft 414 kts 240°
2026-05-07 15:07 37.76434 137.73050 35869 ft 413 kts 240°
2026-05-07 15:07 37.73595 137.66725 35863 ft 413 kts 240°
2026-05-07 15:08 37.70760 137.60422 35868 ft 414 kts 240°
2026-05-07 15:08 37.67912 137.54103 35865 ft 415 kts 240°
2026-05-07 15:09 37.65060 137.47786 35853 ft 415 kts 240°
2026-05-07 15:09 37.62214 137.41496 35853 ft 414 kts 240°
2026-05-07 15:10 37.59343 137.35162 35852 ft 414 kts 240°
2026-05-07 15:10 37.56458 137.28812 35854 ft 415 kts 239°
2026-05-07 15:11 37.53601 137.22534 35854 ft 414 kts 240°
2026-05-07 15:11 37.50733 137.16243 35856 ft 414 kts 240°
2026-05-07 15:12 37.47865 137.09966 35858 ft 414 kts 239°
2026-05-07 15:12 37.44989 137.03685 35856 ft 414 kts 240°
2026-05-07 15:13 37.42116 136.97420 35865 ft 414 kts 239°
2026-05-07 15:13 37.39225 136.91130 35871 ft 414 kts 239°
2026-05-07 15:14 37.36348 136.84882 35869 ft 414 kts 240°
2026-05-07 15:14 37.33458 136.78618 35860 ft 415 kts 240°
2026-05-07 15:15 37.30546 136.72319 35862 ft 414 kts 240°
2026-05-07 15:15 37.27646 136.66057 35859 ft 414 kts 240°
2026-05-07 15:16 37.24746 136.59808 35858 ft 413 kts 240°
2026-05-07 15:16 37.21823 136.53522 35858 ft 414 kts 240°
2026-05-07 15:17 37.18916 136.47281 35861 ft 413 kts 240°
2026-05-07 15:17 37.16002 136.41037 35858 ft 414 kts 240°
2026-05-07 15:18 37.13084 136.34795 35862 ft 414 kts 239°
2026-05-07 15:18 37.10153 136.28538 35864 ft 414 kts 240°
2026-05-07 15:19 37.07240 136.22331 35864 ft 415 kts 239°
2026-05-07 15:19 37.04312 136.16104 35866 ft 414 kts 240°
2026-05-07 15:20 37.01381 136.09885 35865 ft 414 kts 239°
2026-05-07 15:20 36.98458 136.03691 35865 ft 414 kts 239°
2026-05-07 15:21 36.95529 135.97498 35867 ft 413 kts 240°
2026-05-07 15:21 36.92598 135.91312 35857 ft 413 kts 240°
2026-05-07 15:22 36.89635 135.85068 35848 ft 414 kts 240°
2026-05-07 15:22 36.86686 135.78865 35849 ft 413 kts 240°
2026-05-07 15:23 36.83760 135.72725 35845 ft 413 kts 240°
2026-05-07 15:23 36.80827 135.66582 35849 ft 413 kts 240°
2026-05-07 15:24 36.77875 135.60410 35852 ft 413 kts 240°
2026-05-07 15:24 36.74935 135.54274 35849 ft 413 kts 240°
2026-05-07 15:25 36.72002 135.48161 35847 ft 412 kts 240°
2026-05-07 15:25 36.69038 135.41998 35853 ft 412 kts 240°
2026-05-07 15:26 36.66098 135.35898 35857 ft 412 kts 240°
2026-05-07 15:26 36.63128 135.29741 35857 ft 412 kts 240°
2026-05-07 15:27 36.60171 135.23627 35858 ft 412 kts 240°
2026-05-07 15:27 36.57221 135.17537 35856 ft 412 kts 240°
2026-05-07 15:28 36.54251 135.11418 35855 ft 412 kts 240°
2026-05-07 15:28 36.51286 135.05319 35857 ft 412 kts 240°
2026-05-07 15:29 36.48313 134.99217 35856 ft 412 kts 240°
2026-05-07 15:29 36.45350 134.93146 35853 ft 412 kts 240°
2026-05-07 15:30 36.42375 134.87059 35856 ft 412 kts 240°
2026-05-07 15:30 36.39451 134.81088 35852 ft 412 kts 240°
2026-05-07 15:31 36.36491 134.75056 35858 ft 412 kts 240°
2026-05-07 15:31 36.33511 134.68993 35861 ft 412 kts 240°
2026-05-07 15:32 36.30529 134.62936 35859 ft 412 kts 240°
2026-05-07 15:32 36.27541 134.56879 35858 ft 412 kts 240°
2026-05-07 15:33 36.24538 134.50803 35862 ft 412 kts 240°
2026-05-07 15:33 36.21558 134.44786 35854 ft 412 kts 240°
2026-05-07 15:34 36.18552 134.38725 35861 ft 412 kts 240°
2026-05-07 15:34 36.15551 134.32686 35852 ft 413 kts 240°
2026-05-07 15:35 36.12531 134.26621 35843 ft 413 kts 240°
2026-05-07 15:35 36.09495 134.20534 35843 ft 413 kts 240°
2026-05-07 15:36 36.06485 134.14510 35849 ft 412 kts 240°
2026-05-07 15:36 36.03444 134.08432 35846 ft 413 kts 240°
2026-05-07 15:37 36.00430 134.02423 35848 ft 413 kts 240°
2026-05-07 15:37 35.97403 133.96397 35852 ft 413 kts 240°
2026-05-07 15:38 35.94374 133.90376 35847 ft 412 kts 240°
2026-05-07 15:38 35.91349 133.84374 35856 ft 412 kts 240°
2026-05-07 15:39 35.88314 133.78363 35852 ft 412 kts 240°
2026-05-07 15:39 35.85289 133.72383 35851 ft 412 kts 240°
2026-05-07 15:40 35.82240 133.66363 35853 ft 411 kts 240°
2026-05-07 15:40 35.79209 133.60391 35865 ft 412 kts 240°
2026-05-07 15:41 35.76167 133.54408 35870 ft 412 kts 240°
2026-05-07 15:41 35.73106 133.48396 35864 ft 412 kts 240°
2026-05-07 15:42 35.70066 133.42438 35874 ft 411 kts 240°
2026-05-07 15:42 35.67003 133.36444 35874 ft 412 kts 240°
2026-05-07 15:43 35.63951 133.30482 35870 ft 413 kts 240°
2026-05-07 15:43 35.60887 133.24507 35868 ft 412 kts 239°
2026-05-07 15:44 35.57826 133.18549 35873 ft 412 kts 240°
2026-05-07 15:44 35.54762 133.12593 35874 ft 413 kts 239°
2026-05-07 15:45 35.51523 133.06764 35875 ft 414 kts 235°
2026-05-07 15:45 35.47994 133.01164 35878 ft 413 kts 235°
2026-05-07 15:46 35.42701 132.92758 35885 ft 414 kts 235°
2026-05-07 15:47 35.39196 132.87201 35887 ft 413 kts 235°
2026-05-07 15:47 35.35668 132.81612 35886 ft 413 kts 235°
2026-05-07 15:48 35.32109 132.75981 35890 ft 413 kts 234°
2026-05-07 15:48 35.28589 132.70419 35889 ft 413 kts 235°
2026-05-07 15:49 35.25041 132.64821 35890 ft 414 kts 235°
2026-05-07 15:49 35.21506 132.59253 35889 ft 414 kts 235°
2026-05-07 15:50 35.17973 132.53696 35894 ft 415 kts 235°
2026-05-07 15:50 35.14424 132.48122 35884 ft 415 kts 235°
2026-05-07 15:51 35.10877 132.42558 35888 ft 414 kts 234°
2026-05-07 15:51 35.07343 132.37025 35888 ft 414 kts 234°
2026-05-07 15:52 35.03785 132.31464 35893 ft 413 kts 234°
2026-05-07 15:52 35.00223 132.25903 35898 ft 413 kts 234°
2026-05-07 15:53 34.96686 132.20390 35895 ft 414 kts 234°
2026-05-07 15:53 34.93128 132.14853 35892 ft 414 kts 234°
2026-05-07 15:54 34.89552 132.09297 35882 ft 414 kts 234°
2026-05-07 15:54 34.86003 132.03792 35879 ft 414 kts 234°
2026-05-07 15:55 34.82424 131.98250 35874 ft 413 kts 234°
2026-05-07 15:55 34.78881 131.92773 35870 ft 413 kts 234°
2026-05-07 15:55 34.77104 131.90031 35510 ft 411 kts 234°
2026-05-07 15:56 34.75362 131.87346 35009 ft 403 kts 234°
2026-05-07 15:56 34.73630 131.84679 34510 ft 399 kts 234°
2026-05-07 15:56 34.71892 131.82004 34012 ft 399 kts 234°
2026-05-07 15:56 34.70177 131.79364 33503 ft 400 kts 233°
2026-05-07 15:57 34.68453 131.76714 33002 ft 400 kts 234°
2026-05-07 15:57 34.66716 131.74045 32455 ft 401 kts 234°
2026-05-07 15:57 34.64955 131.71343 31920 ft 403 kts 233°
2026-05-07 15:57 34.63198 131.68646 31376 ft 404 kts 234°
2026-05-07 15:58 34.61468 131.65994 30842 ft 405 kts 233°
2026-05-07 15:58 34.59688 131.63268 30300 ft 407 kts 234°
2026-05-07 15:58 34.57928 131.60573 29755 ft 409 kts 234°
2026-05-07 15:58 34.56158 131.57867 29220 ft 411 kts 234°
2026-05-07 15:59 34.54372 131.55139 28672 ft 410 kts 234°
2026-05-07 15:59 34.52607 131.52443 28128 ft 407 kts 234°
2026-05-07 15:59 34.50838 131.49747 27593 ft 404 kts 234°
2026-05-07 15:59 34.49102 131.47099 27054 ft 400 kts 234°
2026-05-07 16:00 34.47368 131.44459 26521 ft 397 kts 234°
2026-05-07 16:00 34.45658 131.41856 25997 ft 394 kts 234°
2026-05-07 16:00 34.43944 131.39250 25469 ft 391 kts 234°
2026-05-07 16:00 34.42277 131.36719 24955 ft 387 kts 234°
2026-05-07 16:01 34.40600 131.34172 24437 ft 385 kts 233°
2026-05-07 16:01 34.38921 131.31625 23928 ft 382 kts 234°
2026-05-07 16:01 34.37282 131.29141 23425 ft 379 kts 233°
2026-05-07 16:01 34.35636 131.26648 22920 ft 376 kts 233°
2026-05-07 16:02 34.34007 131.24182 22430 ft 373 kts 233°
2026-05-07 16:02 34.32379 131.21718 21928 ft 371 kts 233°
2026-05-07 16:02 34.30776 131.19293 21437 ft 368 kts 233°
2026-05-07 16:02 34.29195 131.16907 20955 ft 365 kts 233°
2026-05-07 16:03 34.27606 131.14506 20471 ft 362 kts 233°
2026-05-07 16:03 34.26039 131.12141 19995 ft 359 kts 233°
2026-05-07 16:03 34.24485 131.09798 19526 ft 355 kts 233°
2026-05-07 16:03 34.22956 131.07495 19062 ft 344 kts 233°
2026-05-07 16:04 34.21488 131.05286 18619 ft 334 kts 233°
2026-05-07 16:04 34.20050 131.03122 18185 ft 325 kts 232°
2026-05-07 16:04 34.18791 131.00893 17756 ft 315 kts 244°
2026-05-07 16:04 34.17924 130.98485 17344 ft 310 kts 246°
2026-05-07 16:05 34.17079 130.96092 16959 ft 307 kts 246°
2026-05-07 16:05 34.16243 130.93733 16573 ft 304 kts 246°
2026-05-07 16:05 34.15411 130.91389 16184 ft 300 kts 246°
2026-05-07 16:05 34.14582 130.89059 15801 ft 296 kts 246°
2026-05-07 16:06 34.13782 130.86810 15436 ft 292 kts 246°
2026-05-07 16:06 34.12984 130.84569 15053 ft 288 kts 246°
2026-05-07 16:06 34.12182 130.82365 14695 ft 282 kts 243°
2026-05-07 16:06 34.11134 130.80371 14339 ft 279 kts 236°
2026-05-07 16:07 34.10031 130.78488 13997 ft 276 kts 236°
2026-05-07 16:07 34.08917 130.76576 13640 ft 272 kts 236°
2026-05-07 16:07 34.07836 130.74718 13297 ft 268 kts 236°
2026-05-07 16:07 34.06773 130.72893 12968 ft 264 kts 236°
2026-05-07 16:08 34.05716 130.71077 12628 ft 260 kts 236°
2026-05-07 16:08 34.04689 130.69313 12303 ft 257 kts 236°
2026-05-07 16:08 34.03668 130.67560 11991 ft 254 kts 236°
2026-05-07 16:08 34.02655 130.65820 11648 ft 251 kts 236°
2026-05-07 16:09 34.01646 130.64088 11333 ft 247 kts 237°
2026-05-07 16:09 34.00666 130.62407 11028 ft 243 kts 237°
2026-05-07 16:09 33.99710 130.60747 10732 ft 239 kts 240°
2026-05-07 16:09 33.99158 130.58903 10405 ft 236 kts 264°
2026-05-07 16:10 33.99214 130.56911 10117 ft 233 kts 272°
2026-05-07 16:10 33.99337 130.54980 9885 ft 228 kts 272°
2026-05-07 16:10 33.99242 130.53119 9577 ft 223 kts 250°
2026-05-07 16:10 33.98330 130.51660 9393 ft 219 kts 221°
2026-05-07 16:11 33.97031 130.50580 9405 ft 233 kts 217°
2026-05-07 16:11 33.95628 130.49483 9264 ft 245 kts 217°
2026-05-07 16:11 33.94203 130.48367 8972 ft 246 kts 217°
2026-05-07 16:11 33.92741 130.47218 8512 ft 249 kts 217°
2026-05-07 16:12 33.91299 130.46077 8039 ft 251 kts 217°
2026-05-07 16:12 33.89836 130.44907 7564 ft 252 kts 217°
2026-05-07 16:12 33.88372 130.43732 7083 ft 254 kts 217°
2026-05-07 16:12 33.86809 130.42697 6600 ft 258 kts 200°
2026-05-07 16:13 33.85041 130.42303 6122 ft 261 kts 192°
2026-05-07 16:13 33.83234 130.42029 5635 ft 261 kts 191°
2026-05-07 16:13 33.81463 130.41760 5115 ft 254 kts 191°
2026-05-07 16:13 33.79701 130.41554 4632 ft 248 kts 186°
2026-05-07 16:14 33.78000 130.41524 4161 ft 243 kts 184°
2026-05-07 16:14 33.76324 130.41510 3689 ft 237 kts 184°
2026-05-07 16:14 33.74708 130.41496 3259 ft 226 kts 184°
2026-05-07 16:14 33.73177 130.41490 2786 ft 214 kts 184°
2026-05-07 16:15 33.71698 130.41481 2184 ft 207 kts 184°
2026-05-07 16:15 33.70319 130.41479 1562 ft 191 kts 184°
2026-05-07 16:15 33.69081 130.41461 1192 ft 166 kts 184°
2026-05-07 16:15 33.67997 130.41438 977 ft 147 kts 181°
2026-05-07 16:16 33.66963 130.41429 982 ft 147 kts 183°
2026-05-07 16:16 33.65924 130.41409 981 ft 147 kts 183°
2026-05-07 16:16 33.64895 130.41388 981 ft 146 kts 183°
2026-05-07 16:16 33.63913 130.41419 983 ft 139 kts 174°
2026-05-07 16:17 33.62990 130.41794 828 ft 138 kts 155°
2026-05-07 16:17 33.62217 130.42427 592 ft 129 kts 144°
2026-05-07 16:17 33.61511 130.43031 429 ft 123 kts 147°
2026-05-07 16:17 33.60767 130.43574 274 ft 122 kts 151°
2026-05-07 16:18 33.60036 130.44083 135 ft 121 kts 150°
2026-05-07 16:18 33.59325 130.44566 43 ft 108 kts 151°
2026-05-07 16:18 33.58843 130.44897 42 ft 63 kts 150°
2026-05-07 16:18 33.58566 130.45084 42 ft 33 kts 150°
2026-05-07 16:19 33.58384 130.45253 42 ft 32 kts 130°
2026-05-07 16:19 33.58316 130.45371 42 ft 12 kts 121°
2026-05-07 16:19 33.58311 130.45451 42 ft 11 kts 48°
2026-05-07 16:19 33.58395 130.45433 42 ft 15 kts 333°
2026-05-07 16:20 33.58500 130.45361 42 ft 19 kts 329°
2026-05-07 16:20 33.58627 130.45271 42 ft 22 kts 329°
2026-05-07 16:20 33.58778 130.45171 42 ft 26 kts 331°
2026-05-07 16:20 33.58903 130.45087 42 ft 5 kts 331°
2026-05-07 16:21 33.58956 130.45048 42 ft 14 kts 329°
2026-05-07 16:21 33.59052 130.44994 42 ft 11 kts 34°
2026-05-07 16:21 33.59075 130.45042 42 ft 8 kts 61°
2026-05-07 16:21 33.59087 130.45067 42 ft 0 kts 60°